KE7YUP Weather Reports


time (UTC)temp
C
wind
direction
speed
KPH
gust
KPH
rain 1hr
cm
rain 24hr
cm
rain mn
cm
humidity
%
barometer
mb
20211205112016 3 54 6.4 6.4 0.00 0.00 0.00 68 1022.7
20211205111017 3 43 3.2 6.4 0.00 0.00 0.00 68 1023.3
20211205110017 3 358 4.8 6.4 0.00 0.00 0.00 69 1022.9
20211205105017 3 350 1.6 3.2 0.00 0.00 0.00 69 1022.9
20211205104016 3 350 3.2 4.8 0.00 0.00 0.00 69 1023.0
20211205103017 3 335 6.4 6.4 0.00 0.00 0.00 70 1023.0
20211205102016 3 4 8.0 8.0 0.00 0.00 0.00 72 1023.0
20211205101016 3 354 6.4 6.4 0.00 0.00 0.00 70 1022.9
20211205100017 3 355 3.2 4.8 0.00 0.00 0.00 70 1023.0
20211205095017 3 343 6.4 9.7 0.00 0.00 0.00 71 1023.4
20211205094017 3 340 8.0 9.7 0.00 0.00 0.00 70 1023.4
20211205093017 3 354 6.4 8.0 0.00 0.00 0.00 72 1023.0
20211205092016 3 347 6.4 9.7 0.00 0.00 0.00 72 1022.8
20211205091017 3 348 6.4 8.0 0.00 0.00 0.00 72 1022.9
20211205090017 3 351 4.8 6.4 0.00 0.00 0.00 73 1022.9
20211205085016 3 17 3.2 4.8 0.00 0.00 0.00 72 1022.5
20211205084017 3 10 4.8 6.4 0.00 0.00 0.00 73 1022.8
20211205083017 3 5 4.8 6.4 0.00 0.00 0.00 72 1023.1
20211205082016 3 355 4.8 6.4 0.00 0.00 0.00 71 1023.6
20211205081016 3 351 4.8 6.4 0.00 0.00 0.00 70 1023.6
20211205080017 4 351 1.6 3.2 0.00 0.00 0.00 71 1023.7
20211205075016 3 354 6.4 8.0 0.00 0.00 0.00 71 1023.6
20211205074017 3 355 4.8 4.8 0.00 0.00 0.00 71 1023.5
20211205073016 3 345 6.4 8.0 0.00 0.00 0.00 71 1023.3
20211205072016 3 355 1.6 3.2 0.00 0.00 0.00 70 1023.3
20211205071016 4 355 4.8 4.8 0.00 0.00 0.00 70 1023.4
20211205070020 4 336 4.8 6.4 0.00 0.00 0.00 70 1023.1
20211205065017 4 236 1.6 3.2 0.00 0.00 0.00 69 1023.3
20211205064017 5 344 6.4 8.0 0.00 0.00 0.00 68 1023.4
20211205063017 5 338 6.4 8.0 0.00 0.00 0.00 66 1023.6
20211205062018 5 321 3.2 6.4 0.00 0.00 0.00 66 1023.4
20211205061017 5 314 3.2 6.4 0.00 0.00 0.00 66 1023.4
20211205060018 5 344 1.6 3.2 0.00 0.00 0.00 66 1023.4
20211205055017 5 329 1.6 3.2 0.00 0.00 0.00 67 1023.5
20211205054018 5 340 4.8 8.0 0.00 0.00 0.00 66 1023.2
20211205053017 5 355 8.0 8.0 0.00 0.00 0.00 66 1023.0
20211205052017 5 346 6.4 6.4 0.00 0.00 0.00 66 1023.3
20211205051017 5 348 4.8 6.4 0.00 0.00 0.00 66 1023.1
20211205050017 5 358 6.4 8.0 0.00 0.00 0.00 66 1022.8
20211205045018 6 39 3.2 4.8 0.00 0.00 0.00 65 1023.0
20211205044017 6 0 6.4 8.0 0.00 0.00 0.00 64 1023.0
20211205043017 6 355 6.4 8.0 0.00 0.00 0.00 63 1023.3
20211205042017 7 61 3.2 4.8 0.00 0.00 0.00 63 1023.2
20211205041019 7 335 6.4 8.0 0.00 0.00 0.00 64 1023.4
20211205040017 6 337 6.4 6.4 0.00 0.00 0.00 65 1023.0
20211205035017 6 348 1.6 3.2 0.00 0.00 0.00 64 1022.5
20211205034019 6 323 6.4 8.0 0.00 0.00 0.00 64 1022.5
20211205033017 5 337 6.4 9.7 0.00 0.00 0.00 67 1022.2
20211205032017 5 342 4.8 6.4 0.00 0.00 0.00 68 1022.1
20211205031016 5 342 4.8 6.4 0.00 0.00 0.00 66 1021.6
20211205030017 6 342 1.6 3.2 0.00 0.00 0.00 65 1021.5
20211205025017 6 330 3.2 3.2 0.00 0.00 0.00 63 1021.4
20211205024019 6 325 3.2 6.4 0.00 0.00 0.00 63 1021.5
20211205023017 6 346 8.0 9.7 0.00 0.00 0.00 65 1021.1
20211205022016 6 342 4.8 6.4 0.00 0.00 0.00 64 1021.5
20211205021016 6 355 4.8 8.0 0.00 0.00 0.00 63 1021.5
20211205020017 6 329 1.6 4.8 0.00 0.00 0.00 64 1021.4
20211205015017 6 344 8.0 8.0 0.00 0.00 0.00 65 1021.0
20211205014017 6 343 6.4 8.0 0.00 0.00 0.00 64 1021.3
20211205013017 6 347 4.8 6.4 0.00 0.00 0.00 63 1021.4
20211205012016 6 346 4.8 6.4 0.00 0.00 0.00 63 1021.5
20211205011018 6 346 4.8 6.4 0.00 0.00 0.00 63 1021.5
20211205010016 6 345 8.0 9.7 0.00 0.00 0.00 63 1021.6
20211205005017 6 355 4.8 6.4 0.00 0.00 0.00 62 1021.5
20211205004018 6 355 3.2 4.8 0.00 0.00 0.00 61 1021.5
20211205003016 7 355 3.2 4.8 0.00 0.00 0.00 60 1021.5
20211205002017 7 355 1.6 3.2 0.00 0.00 0.00 59 1021.5
20211205001016 7 355 4.8 6.4 0.00 0.00 0.00 57 1021.9
20211205000016 8 78 3.2 4.8 0.00 0.00 0.00 55 1022.3
20211204235016 9 78 0.0 1.6 0.00 0.00 0.00 54 1022.3
20211204234016 9 78 3.2 4.8 0.00 0.00 0.00 54 1022.7
20211204233017 10 79 3.2 3.2 0.00 0.00 0.00 53 1022.7
20211204232018 10 78 4.8 6.4 0.00 0.00 0.00 52 1023.0
20211204231016 10 122 4.8 6.4 0.00 0.00 0.00 52 1023.6
20211204230016 10 107 3.2 4.8 0.00 0.00 0.00 53 1023.4
20211204225016 10 67 4.8 6.4 0.00 0.00 0.00 52 1023.1
20211204224016 10 55 3.2 6.4 0.00 0.00 0.00 53 1023.2
20211204223016 10 96 4.8 6.4 0.00 0.00 0.00 52 1023.1
20211204222016 10 69 4.8 8.0 0.00 0.00 0.00 52 1023.2
20211204221017 10 99 6.4 9.7 0.00 0.00 0.00 53 1023.0
20211204220017 10 81 6.4 11.3 0.00 0.00 0.00 53 1022.9
20211204215017 10 67 8.0 12.9 0.00 0.00 0.00 52 1023.3
20211204214017 10 87 4.8 11.3 0.00 0.00 0.00 52 1023.4
20211204213016 10 126 4.8 8.0 0.00 0.00 0.00 53 1023.5
20211204212016 10 121 8.0 11.3 0.00 0.00 0.00 53 1023.6
20211204211016 10 130 6.4 8.0 0.00 0.00 0.00 53 1023.7
20211204210016 10 114 6.4 11.3 0.00 0.00 0.00 54 1023.7
20211204205016 9 84 8.0 11.3 0.00 0.00 0.00 55 1023.3
20211204204017 9 86 11.3 14.5 0.00 0.00 0.00 55 1023.4
20211204203016 10 98 9.7 12.9 0.00 0.00 0.00 53 1023.9
20211204202015 11 127 4.8 6.4 0.00 0.00 0.00 51 1024.3
20211204201017 10 126 4.8 6.4 0.00 0.00 0.00 53 1024.5
20211204200016 11 163 6.4 8.0 0.00 0.00 0.00 52 1024.0
20211204195016 10 225 1.6 3.2 0.00 0.00 0.00 54 1024.2
20211204194016 10 126 4.8 6.4 0.00 0.00 0.00 55 1023.9
20211204193017 8 101 1.6 4.8 0.00 0.00 0.00 58 1024.1
20211204192018 8 123 3.2 4.8 0.00 0.00 0.00 60 1024.2
20211204191018 8 88 4.8 8.0 0.00 0.00 0.00 59 1024.6
20211204190018 8 104 4.8 9.7 0.00 0.00 0.00 59 1024.8
20211204185018 7 124 3.2 6.4 0.00 0.00 0.00 60 1024.5
20211204184018 7 112 4.8 9.7 0.00 0.00 0.00 59 1025.0
20211204183017 7 126 3.2 9.7 0.00 0.00 0.00 61 1025.0
20211204182017 7 110 1.6 4.8 0.00 0.00 0.00 63 1025.0
20211204181020 6 103 4.8 9.7 0.00 0.00 0.00 63 1024.8
20211204180018 6 121 4.8 6.4 0.00 0.00 0.00 62 1025.4
20211204175018 6 99 6.4 9.7 0.00 0.00 0.00 63 1025.5
20211204174018 5 113 3.2 9.7 0.00 0.00 0.00 64 1025.1
20211204173017 5 80 4.8 11.3 0.00 0.00 0.00 64 1025.5
20211204172018 5 116 3.2 6.4 0.00 0.00 0.00 67 1025.6
20211204171017 5 133 3.2 6.4 0.00 0.00 0.00 67 1025.6
20211204170017 5 91 6.4 9.7 0.00 0.00 0.00 67 1025.1
20211204165017 5 95 4.8 9.7 0.00 0.00 0.00 68 1025.2
20211204164019 5 120 3.2 4.8 0.00 0.00 0.00 68 1025.0
20211204163017 5 119 4.8 9.7 0.00 0.00 0.00 66 1025.3
20211204162017 5 72 3.2 4.8 0.00 0.00 0.00 66 1025.1
20211204161018 6 68 3.2 4.8 0.00 0.00 0.00 66 1025.0
20211204160018 5 68 0.0 3.2 0.00 0.00 0.00 70 1024.7
20211204155017 4 0.0 0.0 0.00 0.00 0.00 73 1024.4
20211204154017 3 67 1.6 3.2 0.00 0.00 0.00 73 1024.4
20211204153019 3 68 3.2 4.8 0.00 0.00 0.00 74 1023.9
20211204152018 3 68 4.8 6.4 0.00 0.00 0.00 74 1024.3
20211204151017 2 67 1.6 3.2 0.00 0.00 0.00 76 1024.3
20211204150019 1 49 4.8 6.4 0.00 0.00 0.00 78 1024.2
20211204145018 1 23 3.2 3.2 0.00 0.00 0.00 79 1024.2
20211204144017 1 0 1.6 4.8 0.00 0.00 0.00 79 1024.2
20211204143018 1 0 0.0 3.2 0.00 0.00 0.00 79 1023.7
20211204142017 1 0 1.6 3.2 0.00 0.00 0.00 78 1023.7
20211204141018 1 355 3.2 4.8 0.00 0.00 0.00 79 1023.5
20211204140018 1 350 3.2 4.8 0.00 0.00 0.00 80 1023.1
20211204135018 1 0.0 0.0 0.00 0.00 0.00 78 1022.5
20211204134017 1 10 1.6 3.2 0.00 0.00 0.00 77 1022.9
20211204133017 2 36 3.2 6.4 0.00 0.00 0.00 75 1023.4
20211204132018 2 36 4.8 6.4 0.00 0.00 0.00 76 1023.4
20211204131017 2 15 4.8 6.4 0.00 0.00 0.00 77 1023.3
20211204130017 2 38 3.2 4.8 0.00 0.00 0.00 77 1023.1
20211204125017 2 355 8.0 9.7 0.00 0.00 0.00 77 1023.3
20211204124018 1 355 8.0 9.7 0.00 0.00 0.00 80 1023.4
20211204123017 1 342 4.8 6.4 0.00 0.00 0.00 80 1022.9
20211204122018 0 344 6.4 8.0 0.00 0.00 0.00 79 1022.9
20211204121017 1 345 6.4 8.0 0.00 0.00 0.00 79 1023.4
20211204120018 1 81 3.2 4.8 0.00 0.00 0.00 78 1023.6
20211204115017 1 81 1.6 1.6 0.00 0.00 0.00 78 1024.0
20211204114017 1 0.0 0.0 0.00 0.00 0.00 76 1024.8
20211204113019 1 0.0 1.6 0.00 0.00 0.00 76 1024.6